Regional Weather Roundup
Issued by NWS

Home | Current Version | Previous Version | Text Only | Print | Product List | Glossary Off
Versions: 1 2 3 4 5 6 7 8 9 10 11 12 13 14 15 16 17 18 19 20 21 22 23 24 25 26 27 28 29 30 31 32 33 34 35 36 37 38 39 40 41 42 43 44 45 46 47 48 49 50

068
ASUS44 KJAN 010710
RWRMS

MISSISSIPPI HOURLY WEATHER ROUNDUP
NATIONAL WEATHER SERVICE JACKSON MS
100 AM CST SUN MAR 01 2015

NOTE: "FAIR: INDICATES FEW OR NO CLOUDS BELOW 12,000 FEET WITH NO
SIGNIFICANT WEATHER AND/OR OBSTRUCTIONS TO VISIBILITY.

MSZ001>002-007>008-010>013-018>021-025>028-034>036-010800-
NORTHWEST MISSISSIPPI

CITY           SKY/WX    TMP DP  RH WIND       PRES   REMARKS
CLARKSDALE     CLOUDY    36  32  87 NW5       30.36S WCI  32
CLEVELAND      PTSUNNY   37  33  85 N12       30.34F WCI  30
GREENWOOD        N/A    N/A N/A N/A MISG      30.33R
GREENVILLE     CLOUDY    40  33  76 N7        30.32F
OLIVE BRANCH   PTCLDY    34  28  80 CALM      30.35S
OXFORD         MOCLDY    37  32  81 CALM      30.35R
TUNICA         PTSUNNY   34  30  86 N8        30.37F WCI  27
$$

MSZ003>006-009-014>017-022>024-029>033-037>039-010800-
NORTHEAST MISSISSIPPI

CITY           SKY/WX    TMP DP  RH WIND       PRES   REMARKS
COLUMBUS AFB   MOCLDY    51  44  78 SE10      30.35F
CORINTH        CLOUDY    37  34  87 CALM      30.33S
GOLDN TRIANGLE CLEAR     52  43  71 S15       30.34F
STARKVILLE     FAIR      46  41  81 SE8       30.33F
TUPELO         CLEAR     45  34  65 S9        30.31F
$$

MSZ040-058-010800-
CENTRAL MISSISSIPPI

CITY           SKY/WX    TMP DP  RH WIND       PRES   REMARKS
JACKSON INTL   CLEAR     50  43  77 SE6       30.32S
JACKSON HAWKNS PTCLDY    50  43  77 SE6       30.31S
MERIDIAN KEY   MOCLDY    52  45  77 SE6       30.35F
MERIDIAN NAS   MOCLDY    52  46  82 SE12      30.37F
VICKSBURG      MOCLDY    42  38  85 NW3       30.31S
$$

MSZ059>079-010800-
SOUTH MISSISSIPPI

CITY           SKY/WX    TMP DP  RH WIND       PRES   REMARKS
BROOKHAVEN       N/A     52  48  87 SE6       30.32F
HATTIESBURG    CLOUDY    53  47  79 SE5       30.35F
MCCOMB         CLEAR     52  49  89 SE6       30.32R
NATCHEZ        MOCLDY    54  45  71 S8        30.30R
PINE BELT      MOCLDY    52  46  82 SE6       30.33F
$$

MSZ080>082-010800-
COASTAL MISSISSIPPI

CITY           SKY/WX    TMP DP  RH WIND       PRES   REMARKS
BILOXI         CLOUDY    55  52  88 E12       30.34F
PASCAGOULA     CLOUDY    54  51  90 E12       30.37F
GULFPORT       CLOUDY    55  51  86 E9        30.35F
$$



USA.gov is the U.S. government's official web portal to all federal, state and local government web resources and services.